| time (UTC) | temp C | wind direction | speed KPH | gust KPH | rain 1hr cm | rain 24hr cm | rain mn cm | humidity % | barometer mb |
| 20260510081550 | 8 | 0 | 0.0 | 0.0 | 0.00 | 0.00 | 0.00 | 96 | 1011.8 |
| 20260510080054 | 8 | 0 | 0.0 | 1.6 | 0.00 | 0.00 | 0.00 | 96 | 1011.8 |
| 20260510074552 | 8 | 0 | 0.0 | 1.6 | 0.00 | 0.00 | 0.00 | 95 | 1011.7 |
| 20260510073051 | 8 | 0 | 0.0 | 3.2 | 0.00 | 0.00 | 0.00 | 96 | 1011.6 |
| 20260510071555 | 8 | 0 | 0.0 | 0.0 | 0.00 | 0.00 | 0.00 | 95 | 1011.6 |
| 20260510070052 | 8 | 277 | 0.0 | 3.2 | 0.00 | 0.00 | 0.00 | 95 | 1011.6 |
| 20260510064549 | 9 | 0 | 0.0 | 1.6 | 0.00 | 0.00 | 0.00 | 95 | 1011.6 |
| 20260510063053 | 8 | 0 | 0.0 | 0.0 | 0.00 | 0.00 | 0.00 | 95 | 1011.6 |
| 20260510061554 | 8 | 0 | 0.0 | 0.0 | 0.00 | 0.00 | 0.00 | 95 | 1011.6 |
| 20260510060055 | 9 | 0 | 0.0 | 3.2 | 0.00 | 0.00 | 0.00 | 95 | 1011.6 |
| 20260510054553 | 10 | 0 | 0.0 | 1.6 | 0.00 | 0.00 | 0.00 | 94 | 1011.5 |
| 20260510053102 | 9 | 0 | 0.0 | 0.0 | 0.00 | 0.00 | 0.00 | 94 | 1011.4 |
| 20260510051558 | 10 | 0 | 0.0 | 0.0 | 0.00 | 0.00 | 0.00 | 94 | 1011.5 |
| 20260510050056 | 10 | 0 | 0.0 | 0.0 | 0.00 | 0.00 | 0.00 | 93 | 1011.4 |
| 20260510044557 | 11 | 0 | 0.0 | 3.2 | 0.00 | 0.00 | 0.00 | 92 | 1011.5 |
| 20260510043105 | 11 | 0 | 0.0 | 1.6 | 0.00 | 0.00 | 0.00 | 91 | 1011.6 |
| 20260510041555 | 11 | 0 | 0.0 | 0.0 | 0.00 | 0.00 | 0.00 | 91 | 1011.5 |
| 20260510040101 | 12 | 0 | 0.0 | 1.6 | 0.00 | 0.00 | 0.00 | 89 | 1011.3 |
| 20260510034600 | 12 | 0 | 0.0 | 1.6 | 0.00 | 0.00 | 0.00 | 88 | 1011.4 |
| 20260510033107 | 12 | 0 | 0.0 | 1.6 | 0.00 | 0.00 | 0.00 | 87 | 1011.2 |
| 20260510031556 | 12 | 0 | 0.0 | 1.6 | 0.00 | 0.00 | 0.00 | 88 | 1010.9 |
| 20260510024553 | 13 | 0 | 0.0 | 0.0 | 0.00 | 0.00 | 0.00 | 85 | 1010.8 |
| 20260510023057 | 13 | 0 | 0.0 | 0.0 | 0.00 | 0.00 | 0.00 | 84 | 1010.6 |
| 20260510021553 | 13 | 0 | 0.0 | 0.0 | 0.00 | 0.00 | 0.00 | 83 | 1010.2 |
| 20260510020057 | 13 | 0 | 0.0 | 1.6 | 0.00 | 0.00 | 0.00 | 83 | 1010.1 |
| 20260510014553 | 14 | 0 | 0.0 | 0.0 | 0.00 | 0.00 | 0.00 | 82 | 1009.9 |
| 20260510013053 | 15 | 0 | 0.0 | 0.0 | 0.00 | 0.00 | 0.00 | 80 | 1009.7 |
| 20260510011557 | 15 | 0 | 0.0 | 0.0 | 0.00 | 0.00 | 0.00 | 78 | 1009.5 |
| 20260510010053 | 16 | 0 | 0.0 | 0.0 | 0.00 | 0.00 | 0.00 | 76 | 1009.3 |
| 20260510004602 | 16 | 0 | 0.0 | 0.0 | 0.00 | 0.00 | 0.00 | 73 | 1009.1 |
| 20260510003104 | 17 | 0 | 0.0 | 0.0 | 0.00 | 0.00 | 0.00 | 69 | 1009.0 |
| 20260510001551 | 18 | 0 | 0.0 | 0.0 | 0.00 | 0.00 | 0.00 | 65 | 1008.9 |
| 20260510000058 | 20 | 0 | 0.0 | 1.6 | 0.00 | 0.00 | 0.00 | 61 | 1008.6 |
| 20260509234550 | 21 | 0 | 0.0 | 3.2 | 0.00 | 0.00 | 0.00 | 56 | 1008.6 |
| 20260509233056 | 22 | 0 | 0.0 | 11.3 | 0.00 | 0.00 | 0.00 | 54 | 1008.5 |
| 20260509231552 | 22 | 238 | 1.6 | 8.0 | 0.00 | 0.00 | 0.00 | 52 | 1008.5 |
| 20260509230055 | 23 | 167 | 3.2 | 12.9 | 0.00 | 0.00 | 0.00 | 50 | 1008.5 |
| 20260509224553 | 23 | 170 | 3.2 | 8.0 | 0.00 | 0.00 | 0.00 | 49 | 1008.5 |
| 20260509223051 | 23 | 229 | 1.6 | 11.3 | 0.00 | 0.00 | 0.00 | 49 | 1008.6 |
| 20260509221553 | 23 | 222 | 1.6 | 9.7 | 0.00 | 0.00 | 0.00 | 50 | 1008.6 |
| 20260509220050 | 24 | 261 | 3.2 | 8.0 | 0.00 | 0.00 | 0.00 | 48 | 1008.4 |
| 20260509214615 | 23 | 180 | 1.6 | 9.7 | 0.00 | 0.00 | 0.00 | 54 | 1008.4 |
| 20260509213054 | 23 | 245 | 1.6 | 8.0 | 0.00 | 0.00 | 0.00 | 50 | 1008.2 |
| 20260509211553 | 23 | 131 | 1.6 | 16.1 | 0.00 | 0.00 | 0.00 | 47 | 1008.3 |
| 20260509210106 | 25 | 78 | 1.6 | 11.3 | 0.00 | 0.00 | 0.00 | 47 | 1008.2 |
| 20260509204554 | 24 | 0 | 4.8 | 16.1 | 0.00 | 0.00 | 0.00 | 46 | 1008.1 |
| 20260509203115 | 23 | 300 | 3.2 | 9.7 | 0.00 | 0.00 | 0.00 | 51 | 1008.0 |
| 20260509201551 | 23 | 83 | 1.6 | 14.5 | 0.00 | 0.00 | 0.00 | 50 | 1008.0 |
| 20260509200055 | 23 | 229 | 4.8 | 14.5 | 0.00 | 0.00 | 0.00 | 49 | 1008.1 |
| 20260509194555 | 25 | 323 | 4.8 | 17.7 | 0.00 | 0.00 | 0.00 | 46 | 1008.3 |
| 20260509193102 | 24 | 304 | 8.0 | 19.3 | 0.00 | 0.00 | 0.00 | 48 | 1008.6 |
| 20260509191601 | 24 | 63 | 4.8 | 19.3 | 0.00 | 0.00 | 0.00 | 50 | 1008.7 |
| 20260509190057 | 24 | 271 | 4.8 | 16.1 | 0.00 | 0.00 | 0.00 | 48 | 1009.0 |
| 20260509184600 | 24 | 263 | 4.8 | 17.7 | 0.00 | 0.00 | 0.00 | 50 | 1009.1 |
| 20260509183059 | 24 | 299 | 4.8 | 14.5 | 0.00 | 0.00 | 0.00 | 51 | 1009.6 |
| 20260509181558 | 23 | 261 | 4.8 | 14.5 | 0.00 | 0.00 | 0.00 | 55 | 1009.8 |
| 20260509180109 | 22 | 265 | 3.2 | 14.5 | 0.00 | 0.00 | 0.00 | 56 | 1010.0 |
| 20260509174624 | 22 | 284 | 3.2 | 17.7 | 0.00 | 0.00 | 0.00 | 56 | 1010.0 |
| 20260509173100 | 22 | 242 | 3.2 | 12.9 | 0.00 | 0.00 | 0.00 | 56 | 1010.2 |
| 20260509171557 | 22 | 80 | 6.4 | 20.9 | 0.00 | 0.00 | 0.00 | 55 | 1010.3 |
| 20260509170100 | 21 | 239 | 3.2 | 14.5 | 0.00 | 0.00 | 0.00 | 58 | 1010.3 |
| 20260509164556 | 20 | 249 | 3.2 | 17.7 | 0.00 | 0.00 | 0.00 | 61 | 1010.7 |
| 20260509163100 | 20 | 62 | 3.2 | 17.7 | 0.00 | 0.00 | 0.00 | 62 | 1010.7 |
| 20260509161554 | 21 | 202 | 4.8 | 17.7 | 0.00 | 0.00 | 0.00 | 60 | 1010.6 |
| 20260509160055 | 21 | 132 | 6.4 | 27.4 | 0.00 | 0.00 | 0.00 | 59 | 1010.7 |
| 20260509154554 | 21 | 65 | 4.8 | 19.3 | 0.00 | 0.00 | 0.00 | 60 | 1010.9 |
| 20260509153104 | 19 | 272 | 3.2 | 17.7 | 0.00 | 0.00 | 0.00 | 64 | 1011.1 |
| 20260509151555 | 18 | 157 | 3.2 | 11.3 | 0.00 | 0.00 | 0.00 | 66 | 1011.3 |
| 20260509150056 | 17 | 236 | 1.6 | 11.3 | 0.00 | 0.00 | 0.00 | 69 | 1011.5 |
| 20260509144551 | 18 | 109 | 6.4 | 16.1 | 0.00 | 0.00 | 0.00 | 66 | 1011.5 |
| 20260509143054 | 16 | 161 | 3.2 | 12.9 | 0.00 | 0.00 | 0.00 | 68 | 1011.6 |
| 20260509141559 | 16 | 113 | 3.2 | 9.7 | 0.00 | 0.00 | 0.00 | 72 | 1011.8 |
| 20260509140055 | 15 | 100 | 4.8 | 16.1 | 0.00 | 0.00 | 0.00 | 73 | 1012.0 |
| 20260509134551 | 13 | 107 | 3.2 | 6.4 | 0.00 | 0.00 | 0.00 | 73 | 1012.2 |
| 20260509133054 | 13 | 243 | 1.6 | 9.7 | 0.00 | 0.00 | 0.00 | 75 | 1012.1 |
| 20260509131559 | 13 | 0 | 3.2 | 6.4 | 0.00 | 0.00 | 0.00 | 76 | 1012.2 |
| 20260509130106 | 13 | 0 | 0.0 | 4.8 | 0.00 | 0.00 | 0.00 | 77 | 1012.3 |
| 20260509124557 | 12 | 189 | 1.6 | 11.3 | 0.00 | 0.00 | 0.00 | 78 | 1012.5 |
| 20260509123058 | 12 | 0 | 1.6 | 9.7 | 0.00 | 0.00 | 0.00 | 78 | 1012.3 |
| 20260509121604 | 11 | 87 | 1.6 | 4.8 | 0.00 | 0.00 | 0.00 | 79 | 1012.3 |
| 20260509120053 | 11 | 119 | 1.6 | 6.4 | 0.00 | 0.00 | 0.00 | 81 | 1012.3 |
| 20260509114559 | 10 | 0 | 0.0 | 3.2 | 0.00 | 0.00 | 0.00 | 82 | 1012.4 |
| 20260509113058 | 9 | 72 | 1.6 | 3.2 | 0.00 | 0.00 | 0.00 | 84 | 1012.3 |
| 20260509111557 | 8 | 199 | 0.0 | 1.6 | 0.00 | 0.00 | 0.00 | 86 | 1012.5 |
| 20260509110056 | 8 | 0 | 0.0 | 1.6 | 0.00 | 0.00 | 0.00 | 87 | 1012.3 |
| 20260509104600 | 8 | 0 | 0.0 | 1.6 | 0.00 | 0.00 | 0.00 | 85 | 1012.3 |
| 20260509103102 | 8 | 0 | 0.0 | 1.6 | 0.00 | 0.00 | 0.00 | 86 | 1012.2 |
| 20260509101605 | 7 | 0 | 0.0 | 1.6 | 0.00 | 0.00 | 0.00 | 88 | 1012.1 |
| 20260509100057 | 7 | 0 | 0.0 | 0.0 | 0.00 | 0.00 | 0.00 | 87 | 1011.8 |
| 20260509094609 | 7 | 0 | 0.0 | 0.0 | 0.00 | 0.00 | 0.00 | 87 | 1011.9 |
| 20260509093059 | 8 | 0 | 0.0 | 0.0 | 0.00 | 0.00 | 0.00 | 85 | 1012.1 |
| 20260509091605 | 7 | 0 | 0.0 | 3.2 | 0.00 | 0.00 | 0.00 | 86 | 1012.2 |
| 20260509090100 | 6 | 0 | 0.0 | 1.6 | 0.00 | 0.00 | 0.00 | 87 | 1012.2 |
| 20260509084555 | 6 | 0 | 0.0 | 1.6 | 0.00 | 0.00 | 0.00 | 85 | 1012.3 |
| 20260509083101 | 6 | 0 | 0.0 | 1.6 | 0.00 | 0.00 | 0.00 | 86 | 1012.5 |